Flag for Namibia Weather past 2 weeks in Windhoek, Namibia

Now
66 °F

Sunny.


Feels Like: 66 °F
Forecast: 46 / 78 °F
Wind: 12 mph from East

Location: Windhoek

Current Time: Sep 3, 2015 at 10:27:21 AM

Latest Report: Sep 3, 2015 at 10:00 AM


Visibility: 10 mi

Pressure: 30.33 "Hg (24.92 "Hg at 1680m altitude)

Humidity: 18%

Dew point: 21 °F

Location of WindhoekLocation

Historic Weather in Windhoek — Graph

°F

Windhoek temperature yesterday

Maximum temperature yesterday: 79 °F (at 3:00 PM)
Minimum temperature yesterday: 46 °F (at 5:00 AM)
Average temperature yesterday: 65 °F

Past Weeks' High & Low Weather Summary

 TemperatureHumidityPressure
High88 °F (Aug 31, 5:00 PM)72% (Aug 25, 5:00 AM)30.33 "Hg (Aug 25, 5:00 AM)
Low45 °F (Sep 1, 6:00 AM)4% (Aug 20, 10:00 AM)29.98 "Hg (Aug 31, 5:00 PM)
Average69 °F25%30.19 "Hg
* Reported Aug 19 9:00 AM — Sep 3 9:00 AM, Windhoek, Weather by CustomWeather, © 2015

Note: Actual official high and low records may vary slightly from our data, if they occured in-between our weather recording intervals... More about our weather records

Advertising

Windhoek weather history for previous 24 hours

 ConditionsComfort  
Time TempWeatherWind HumidityBarometerVisibility
9:00 AM
Thu, Sep 3
61 °FSunny.15 mph22%30.33 "Hg10 mi
8:00 AM59 °FSunny.12 mph23%30.33 "Hg10 mi
7:00 AM52 °FSunny.9 mph30%30.30 "Hg10 mi
6:00 AM50 °FSunny.12 mph32%30.30 "Hg10 mi
5:00 AM50 °FSunny.13 mph32%30.27 "Hg10 mi
4:00 AM50 °FClear.13 mph32%30.27 "Hg10 mi
7:00 PM
Wed, Sep 2
64 °FClear.6 mph19%30.24 "Hg10 mi
6:00 PM70 °FClear.8 mph16%30.21 "Hg10 mi
5:00 PM75 °FClear.7 mph10%30.21 "Hg10 mi
4:00 PM77 °FSunny.No wind11%30.21 "Hg10 mi
3:00 PM79 °FSunny.5 mph10%30.18 "Hg10 mi
2:00 PM77 °FSunny.6 mph10%30.21 "Hg10 mi
1:00 PM77 °FSunny.5 mph10%30.24 "Hg10 mi
12:00 PM75 °FSunny.3 mph13%30.27 "Hg10 mi
11:00 AM70 °FSunny.3 mph18%30.30 "Hg10 mi
10:00 AM68 °FSunny.7 mph23%30.30 "Hg10 mi
Weather by CustomWeather, © 2015

See weather overviewHow to use our weather pages